TimeCDT,TemperatureF,Dew PointF,Humidity,Sea Level PressureIn,VisibilityMPH,Wind Direction,Wind SpeedMPH,Gust SpeedMPH,PrecipitationIn,Events,Conditions,WindDirDegrees,DateUTC
12:54 AM,42.1,36.0,79,30.38,10.0,Calm,Calm,-,N/A,,Clear,0,2013-04-26 05:54:00
1:54 AM,42.1,36.0,79,30.38,10.0,Calm,Calm,-,N/A,,Clear,0,2013-04-26 06:54:00
2:54 AM,39.9,35.1,83,30.39,10.0,Calm,Calm,-,N/A,,Clear,0,2013-04-26 07:54:00
3:54 AM,42.1,37.0,82,30.39,10.0,Calm,Calm,-,N/A,,Clear,0,2013-04-26 08:54:00
4:54 AM,42.1,37.0,82,30.39,10.0,ENE,4.6,-,N/A,,Clear,60,2013-04-26 09:54:00
5:54 AM,42.1,36.0,79,30.39,10.0,ENE,3.5,-,N/A,,Clear,60,2013-04-26 10:54:00
6:54 AM,45.0,33.1,63,30.39,10.0,East,4.6,-,N/A,,Clear,80,2013-04-26 11:54:00
7:54 AM,48.9,35.1,59,30.41,10.0,East,5.8,-,N/A,,Clear,100,2013-04-26 12:54:00
8:54 AM,53.1,35.1,50,30.42,10.0,East,6.9,-,N/A,,Clear,100,2013-04-26 13:54:00
9:54 AM,55.9,34.0,44,30.45,10.0,SE,4.6,-,N/A,,Clear,130,2013-04-26 14:54:00
10:54 AM,57.9,36.0,44,30.46,10.0,South,6.9,-,N/A,,Clear,170,2013-04-26 15:54:00
11:54 AM,60.1,36.0,41,30.44,10.0,ESE,6.9,-,N/A,,Clear,110,2013-04-26 16:54:00
12:54 PM,61.0,37.0,41,30.40,10.0,SE,9.2,-,N/A,,Clear,140,2013-04-26 17:54:00
1:54 PM,62.1,36.0,38,30.38,10.0,SE,6.9,-,N/A,,Scattered Clouds,140,2013-04-26 18:54:00
2:54 PM,61.0,37.9,42,30.40,10.0,South,6.9,-,N/A,,Overcast,190,2013-04-26 19:54:00
3:54 PM,60.1,39.0,46,30.39,10.0,SSW,10.4,-,N/A,,Mostly Cloudy,200,2013-04-26 20:54:00
4:54 PM,57.0,39.9,53,30.35,10.0,SSW,6.9,-,N/A,,Overcast,210,2013-04-26 21:54:00
5:54 PM,57.0,41.0,55,30.35,10.0,South,4.6,-,N/A,,Overcast,170,2013-04-26 22:54:00
6:54 PM,57.0,39.0,51,30.35,10.0,Variable,4.6,-,N/A,,Overcast,0,2013-04-26 23:54:00
7:54 PM,55.9,39.9,55,30.33,10.0,SE,3.5,-,N/A,,Overcast,140,2013-04-27 00:54:00
8:54 PM,54.0,43.0,66,30.31,10.0,Calm,Calm,-,N/A,,Overcast,0,2013-04-27 01:54:00
9:54 PM,53.1,43.0,69,30.35,10.0,Calm,Calm,-,N/A,,Mostly Cloudy,0,2013-04-27 02:54:00
10:54 PM,53.1,44.1,71,30.36,10.0,Calm,Calm,-,N/A,,Overcast,0,2013-04-27 03:54:00
11:54 PM,52.0,44.1,74,30.33,10.0,South,3.5,-,N/A,,Mostly Cloudy,190,2013-04-27 04:54:00